Вернуться в каталог

NOAA 17 DEB

АктивенPO
NORAD 48723·DEBRIS·🇺🇸 United States

Запущен Jun 24, 2002 с Vandenberg Space Force Base

Loading…

Ближайшие Пролёты (ближайшие 24 часа)

TLE

СвежийSource: Space-Track

Эпоха: Sep 13, 2026, 10:48 UTC

1 48723U 02032BG  26256.45058154  .00004298  00000-0  10853-2 0  9996
2 48723  98.8199 253.4429 0020033 341.5447  18.5017 14.51465057287260

Отслеживайте NOAA 17 DEB в реальном времени с AllMySat

Download on the App Store